Olney-Noble, IL

4:51 PM CDT on July 20, 2017 (GMT -0500)
Olney-Noble

Weather History for KOLY - March, 2013

Change the Weather History Date:

Saturday, March 2, 2013

  Actual Average (KEVV) Record (KEVV)
Temperature  
Mean Temperature 30 °F -  
Max Temperature 33 °F 53 °F 78 °F (1992)
Min Temperature 28 °F 34 °F 4 °F (1980)
Degree Days  
Heating Degree Days 34    
Moisture  
Dew Point 25 °F    
Average Humidity 80    
Maximum Humidity 93    
Minimum Humidity 64    
Precipitation  
Precipitation 0.00 in - - ()
Sea Level Pressure  
Sea Level Pressure 30.15 in    
Wind  
Wind Speed 11 mph (NNW)    
Max Wind Speed 16 mph    
Max Gust Speed 20 mph    
Visibility 9 miles    
Events Rain , Snow    
Averages and records for this station are not official NWS values.
T = Trace of Precipitation, MM = Missing Value Source: NWS Daily Summary

Daily Weather History Graph

Daily Weather History Graph

Search for Another Location

Airport or City:

Trip Planner

Search our weather history database for the weather conditions in past years. The results will help you decide how hot, cold, wet, or windy it might be!

Date:

Astronomy

Mar. 02, 2013 Rise Set
Actual Time 6:23 AM CST 5:46 PM CST
Civil Twilight 5:56 AM CST 6:13 PM CST
Nautical Twilight 5:25 AM CST 6:44 PM CST
Astronomical Twilight 4:55 AM CST 7:15 PM CST
Moon 11:22 PM CST (3/2) 8:54 AM CST (3/2)
Length of Visible Light 12h 17m
Length of Day
11h 23m
Waning Gibbous, 74% of the Moon is Illuminated
Mar 2
Waning Gibbous
Mar 4
Last Quarter
Mar 11
New
Mar 19
First Quarter
Mar 27
Full

Hourly Weather History & Observations

Time (CST) Temp. Windchill Dew Point Humidity Pressure Visibility Wind Dir Wind Speed Gust Speed Precip Events Conditions
12:15 AM 32.0 °F 22.5 °F 28.4 °F 87% 30.11 in 10.0 mi North 12.7 mph 18.4 mph N/A Rain Light Rain
12:35 AM 30.2 °F 19.8 °F 26.6 °F 86% 30.11 in 10.0 mi North 13.8 mph - N/A Rain Light Freezing Rain
12:55 AM 30.2 °F 21.9 °F 26.6 °F 86% 30.12 in 10.0 mi North 9.2 mph - N/A Rain Light Freezing Rain
1:15 AM 30.2 °F 21.9 °F 28.4 °F 93% 30.12 in 10.0 mi North 9.2 mph - N/A Snow Light Snow
1:35 AM 30.2 °F 20.8 °F 28.4 °F 93% 30.12 in 10.0 mi North 11.5 mph 19.6 mph N/A Rain Light Freezing Rain
1:55 AM 30.2 °F 20.8 °F 28.4 °F 93% 30.11 in 10.0 mi NNW 11.5 mph - N/A Rain Light Freezing Rain
2:15 AM 30.2 °F 20.8 °F 26.6 °F 86% 30.11 in 10.0 mi North 11.5 mph - N/A Snow Light Snow
2:35 AM 30.2 °F 20.8 °F 26.6 °F 86% 30.11 in 10.0 mi NNW 11.5 mph - N/A Snow Light Snow
2:55 AM 30.2 °F 22.6 °F 26.6 °F 86% 30.11 in 10.0 mi North 8.1 mph - N/A Rain Light Freezing Rain
3:15 AM 30.2 °F 20.8 °F 26.6 °F 86% 30.11 in 10.0 mi NNW 11.5 mph - N/A   Light Freezing Rain
3:35 AM 30.2 °F 21.9 °F 26.6 °F 86% 30.11 in 10.0 mi NNW 9.2 mph - N/A Rain Light Freezing Rain
3:55 AM 30.2 °F 20.8 °F 26.6 °F 86% 30.11 in 10.0 mi NNW 11.5 mph - N/A Rain Light Freezing Rain
4:15 AM 30.2 °F 20.8 °F 26.6 °F 86% 30.11 in 10.0 mi NNW 11.5 mph - N/A   Overcast
4:35 AM 30.2 °F 20.8 °F 26.6 °F 86% 30.12 in 10.0 mi NNW 11.5 mph - N/A   Overcast
4:55 AM 30.2 °F 19.8 °F 26.6 °F 86% 30.12 in 10.0 mi NNW 13.8 mph - N/A Rain Light Freezing Rain
5:15 AM 30.2 °F 20.2 °F 26.6 °F 86% 30.12 in 10.0 mi NNW 12.7 mph - N/A   Overcast
5:35 AM 30.2 °F 20.8 °F 26.6 °F 86% 30.12 in 10.0 mi NNW 11.5 mph - N/A Rain Light Freezing Rain
5:55 AM 30.2 °F 20.8 °F 26.6 °F 86% 30.12 in 10.0 mi NNW 11.5 mph - N/A   Overcast
6:15 AM 30.2 °F 20.2 °F 26.6 °F 86% 30.13 in 10.0 mi NNW 12.7 mph - N/A   Overcast
6:35 AM 30.2 °F 21.3 °F 26.6 °F 86% 30.13 in 10.0 mi NNW 10.4 mph - N/A Rain Light Freezing Rain
6:55 AM 30.2 °F 20.8 °F 26.6 °F 86% 30.13 in 10.0 mi NNW 11.5 mph - N/A Snow Light Snow
7:15 AM 28.4 °F 18.0 °F 26.6 °F 93% 30.14 in 7.0 mi NNW 12.7 mph - N/A Snow Light Snow
7:35 AM 30.2 °F 20.8 °F 26.6 °F 86% 30.15 in 7.0 mi NW 11.5 mph - N/A Snow Light Snow
7:55 AM 30.2 °F 21.3 °F 26.6 °F 86% 30.15 in 4.0 mi NW 10.4 mph - N/A Snow Light Snow
8:15 AM 28.4 °F 19.1 °F 26.6 °F 93% 30.16 in 2.0 mi NW 10.4 mph - N/A Snow Light Snow
8:35 AM 30.2 °F 21.9 °F 26.6 °F 86% 30.16 in 3.0 mi NW 9.2 mph - N/A Snow Light Snow
8:55 AM 30.2 °F 20.2 °F 26.6 °F 86% 30.16 in 5.0 mi NNW 12.7 mph - N/A Snow Light Snow
9:15 AM 30.2 °F 19.8 °F 26.6 °F 86% 30.17 in 5.0 mi NNW 13.8 mph - N/A Snow Light Snow
9:35 AM 30.2 °F 20.8 °F 26.6 °F 86% 30.17 in 7.0 mi NW 11.5 mph - N/A Snow Light Snow
9:55 AM 30.2 °F 20.2 °F 26.6 °F 86% 30.17 in 10.0 mi NNW 12.7 mph - N/A   Overcast
10:15 AM 30.2 °F 19.8 °F 26.6 °F 86% 30.16 in 5.0 mi NW 13.8 mph - N/A Snow Light Snow
10:35 AM 30.2 °F 19.8 °F 26.6 °F 86% 30.17 in 4.0 mi NW 13.8 mph - N/A Snow Light Snow
10:55 AM 30.2 °F 20.2 °F 26.6 °F 86% 30.17 in 4.0 mi NW 12.7 mph - N/A Snow Light Snow
11:15 AM 30.2 °F 21.3 °F 26.6 °F 86% 30.17 in 5.0 mi NW 10.4 mph 17.3 mph N/A Snow Light Snow
11:35 AM 30.2 °F 20.8 °F 26.6 °F 86% 30.17 in 5.0 mi NW 11.5 mph - N/A Snow Light Snow
11:55 AM 30.2 °F 21.3 °F 26.6 °F 86% 30.16 in 7.0 mi NW 10.4 mph - N/A Snow Light Snow
12:15 PM 32.0 °F 22.1 °F 26.6 °F 80% 30.16 in 10.0 mi NW 13.8 mph 18.4 mph N/A Snow Light Snow
12:35 PM 32.0 °F 22.5 °F 26.6 °F 80% 30.15 in 10.0 mi NW 12.7 mph - N/A   Overcast
12:55 PM 32.0 °F 22.1 °F 26.6 °F 80% 30.15 in 10.0 mi NNW 13.8 mph - N/A Snow Light Snow
1:15 PM 33.8 °F 25.3 °F 26.6 °F 75% 30.15 in 10.0 mi NW 11.5 mph 18.4 mph N/A   Overcast
1:35 PM 33.8 °F 23.9 °F 26.6 °F 75% 30.14 in 10.0 mi NW 15.0 mph 19.6 mph N/A   Overcast
1:55 PM 33.8 °F 23.9 °F 26.6 °F 75% 30.14 in 10.0 mi NNW 15.0 mph 19.6 mph N/A   Overcast
2:15 PM 33.8 °F 23.5 °F 24.8 °F 70% 30.14 in 10.0 mi NNW 16.1 mph - N/A   Overcast
2:35 PM 32.0 °F 22.5 °F 26.6 °F 80% 30.14 in 5.0 mi NW 12.7 mph - N/A Snow Light Snow
2:55 PM 32.0 °F 22.1 °F 24.8 °F 75% 30.15 in 7.0 mi NNW 13.8 mph - N/A Snow Light Snow
3:15 PM 32.0 °F 22.1 °F 24.8 °F 75% 30.15 in 10.0 mi NNW 13.8 mph - N/A   Overcast
3:35 PM 32.0 °F 22.1 °F 26.6 °F 80% 30.15 in 10.0 mi NW 13.8 mph - N/A   Overcast
3:55 PM 32.0 °F 23.6 °F 26.6 °F 80% 30.15 in 7.0 mi NW 10.4 mph - N/A Snow Light Snow
4:15 PM 32.0 °F 23.6 °F 26.6 °F 80% 30.16 in 10.0 mi NW 10.4 mph 17.3 mph N/A Snow Light Snow
4:35 PM 32.0 °F 23.6 °F 24.8 °F 75% 30.16 in 10.0 mi NNW 10.4 mph - N/A   Overcast
4:55 PM 32.0 °F 23.0 °F 24.8 °F 75% 30.16 in 10.0 mi NNW 11.5 mph 16.1 mph N/A   Overcast
5:15 PM 32.0 °F 22.5 °F 24.8 °F 75% 30.16 in 10.0 mi NW 12.7 mph - N/A   Overcast
5:35 PM 30.2 °F 20.8 °F 24.8 °F 80% 30.16 in 10.0 mi NW 11.5 mph - N/A   Mostly Cloudy
5:55 PM 30.2 °F 21.3 °F 24.8 °F 80% 30.17 in 10.0 mi NW 10.4 mph - N/A   Scattered Clouds
6:15 PM 30.2 °F 20.8 °F 23.0 °F 75% 30.17 in 10.0 mi NNW 11.5 mph 17.3 mph N/A   Mostly Cloudy
6:35 PM 30.2 °F 20.8 °F 21.2 °F 69% 30.18 in 10.0 mi NW 11.5 mph - N/A   Overcast
6:55 PM 30.2 °F 22.6 °F 23.0 °F 75% 30.18 in 10.0 mi NNW 8.1 mph - N/A   Overcast
7:15 PM 30.2 °F 22.6 °F 21.2 °F 69% 30.18 in 10.0 mi NNW 8.1 mph - N/A   Overcast
7:35 PM 30.2 °F 22.6 °F 21.2 °F 69% 30.18 in 10.0 mi NNW 8.1 mph - N/A   Overcast
7:55 PM 30.2 °F 21.9 °F 21.2 °F 69% 30.17 in 10.0 mi NNW 9.2 mph - N/A   Overcast
8:15 PM 30.2 °F 22.6 °F 21.2 °F 69% 30.18 in 10.0 mi NNW 8.1 mph - N/A   Overcast
8:35 PM 30.2 °F 22.6 °F 21.2 °F 69% 30.18 in 10.0 mi NNW 8.1 mph - N/A   Overcast
8:55 PM 30.2 °F 20.8 °F 21.2 °F 69% 30.19 in 10.0 mi NW 11.5 mph - N/A   Overcast
9:15 PM 30.2 °F 22.6 °F 21.2 °F 69% 30.18 in 10.0 mi NW 8.1 mph - N/A   Overcast
9:35 PM 30.2 °F 21.3 °F 21.2 °F 69% 30.18 in 10.0 mi NW 10.4 mph - N/A   Overcast
9:55 PM 30.2 °F 22.6 °F 21.2 °F 69% 30.18 in 10.0 mi NW 8.1 mph - N/A   Overcast
10:15 PM 30.2 °F 21.3 °F 19.4 °F 64% 30.18 in 10.0 mi North 10.4 mph - N/A   Overcast
10:35 PM 28.4 °F 19.1 °F 21.2 °F 74% 30.18 in 10.0 mi NNW 10.4 mph - N/A   Overcast
10:55 PM 28.4 °F 21.2 °F 21.2 °F 74% 30.18 in 10.0 mi NNW 6.9 mph - N/A   Overcast
11:15 PM 28.4 °F 19.7 °F 21.2 °F 74% 30.18 in 10.0 mi North 9.2 mph - N/A   Overcast
11:35 PM 28.4 °F 19.7 °F 21.2 °F 74% 30.18 in 10.0 mi NW 9.2 mph - N/A   Overcast
11:55 PM 28.4 °F 19.1 °F 21.2 °F 74% 30.18 in 10.0 mi NW 10.4 mph - N/A   Overcast